Miscellaneous Local Product
Issued by NWS North Platte, NE

Home | Current Version | Previous Version | Graphics & Text | Print | Product List | Glossary On
Versions: 1 2 3 4 5 6 7 8 9 10 11 12 13 14 15 16 17 18 19 20 21 22 23 24 25 26 27 28 29 30 31 32 33 34 35 36 37 38 39 40 41 42 43 44 45 46 47 48 49 50
000
AXUS43 KLBF 300110
MISLBF


WESTERN AND NORTH CENTRAL NEBRASKA HOURLY WEATHER ROUNDUP
NATIONAL WEATHER SERVICE NORTH PLATTE NE
800 PM CDT SUN MAY 29 2016

NOTE: "FAIR" INDICATES FEW OR NO CLOUDS BELOW 12,000 FEET WITH NO
SIGNIFICANT WEATHER AND/OR OBSTRUCTIONS TO VISIBILITY.

NOTE: STATIONS NOT REPORTING VARIABLES SUCH AS SKY/WEATHER OR
PRESSURE ARE PROVIDED BY RAWS AND APRS NETWORKS AND ARE NOT UNDER
NATIONAL WEATHER SERVICE QUALITY CONTROL.

...OBSERVATIONS IN AND NEAR THE EASTERN PANHANDLE OF NEBRASKA...

CITY           SKY/WX    TMP DP  RH WIND       PRES   REMARKS
PINE RIDGE     SUNNY     78  48  34 NE6       29.95F
CHADRON        CLOUDY    76  48  37 N7        29.95F
ALLIANCE       CLOUDY    72  50  45 SW7       29.99R
SIDNEY         CLOUDY    68  51  54 E6        30.02S
CRESCENT LAKE    N/A     77  43  29 CALM        N/A
$$

...OBSERVATIONS IN NORTHERN NEBRASKA AND FAR SOUTHERN SOUTH DAKOTA...

CITY           SKY/WX    TMP DP  RH WIND       PRES   REMARKS
WINNER         FAIR      76  57  51 E12       29.97S
VALENTINE      CLOUDY    77  52  41 SE14      29.95F
THEDFORD       PTSUNNY   78  55  44 SE12      29.98S
AINSWORTH      SUNNY     74  57  54 E13       29.98R
O`NEILL        CLEAR     76  55  48 E10       30.00R
ORD            CLOUDY    78  56  46 SE8       29.96F
BROKEN BOW     CLOUDY    76  58  53 SE12      29.98S
BUTTE            N/A     72  59  63 E9          N/A
CHAMBERS         N/A     79  55  42 E3          N/A
EWING            N/A     76  60  56 E7          N/A
$$

...OBSERVATIONS IN SOUTHWEST NEBRASKA AND FAR NORTHEAST COLORADO...

CITY           SKY/WX    TMP DP  RH WIND       PRES   REMARKS
WRAY           FAIR      70  52  52 SE24G31   30.00R
IMPERIAL       CLOUDY    63  54  72 S12       30.01R
OGALLALA       CLOUDY    74  51  43 S22G28    29.99R
NORTH PLATTE   TSTM      64  58  80 SE9       30.02R
MCCOOK         LGT RAIN  67  56  67 NE6       30.03R
LEXINGTON      CLOUDY    72  55  55 S13       29.96F
STAPLETON        N/A     76  58  52 CALM        N/A
GOTHENBURG       N/A     72  51  46 SW9         N/A
CALLAWAY         N/A     76  59  55 SE12        N/A
$$

...OBSERVATIONS IN CENTRAL LINCOLN COUNTY AREA...

CITY           SKY/WX    TMP DP  RH WIND       PRES   REMARKS
N.P. AIRPORT   TSTM      64  58  80 SE9       30.02R
N.P. DOWNTOWN    N/A     62  61  96 E3          N/A
N.P. SOUTHEAST   N/A     76  60  56 SE9G25      N/A
N.P. HILLCREST   N/A     64  59  84 SE15        N/A
$$

...SOME OBSERVATIONS FROM AROUND THE REGION...

CITY           SKY/WX    TMP DP  RH WIND       PRES   REMARKS
DENVER         CLOUDY    61  44  53 N10       30.11S
LARAMIE        CLOUDY    52  45  77 SE6       30.21R
CHEYENNE       CLOUDY    59  40  49 W15G25    30.14S
SCOTTSBLUFF    CLOUDY    73  42  32 S8        29.99F
RAPID CITY     SUNNY     73  52  47 E9        29.96F
BISMARCK       SUNNY     77  45  32 SW5       29.92F
PIERRE         SUNNY     70  54  56 E8        29.95S
SIOUX FALLS    CLEAR     74  54  49 NE5       29.99S
OMAHA          CLOUDY    80  63  55 E6        29.98R
GRAND ISLAND   CLOUDY    73  53  49 S16       30.00R
KANSAS CITY    CLOUDY    74  66  76 S6        30.03F
WICHITA        CLOUDY    74  59  59 S6        30.01F
OKLAHOMA CITY  CLOUDY    77  66  68 SE7       30.03S
DALLAS         CLOUDY    74  68  81 NE9       29.98R
AMARILLO       CLOUDY    57  52  83 E28G35    30.14S
DODGE CITY     CLOUDY    68  54  60 S13       30.04R
HAYS           CLOUDY    72  48  43 W16G23    30.03R
GOODLAND       LGT RAIN  59  53  80 S23G35    30.07R
$$




USA.gov is the U.S. government's official web portal to all federal, state and local government web resources and services.